Airfield :
LOGIN :

Register | Disclaimer

   EN    FR    IT 

 










Legend :    VFR   Marginal VFR   IFR   Intensive IFR   Very Intensive IFR
Visi :
Ceiling :
>= 8 km
>= 3000ft
5 to 8 km
1000 to 3000 ft
1500m to 5 km
500 to 1000 ft
800 to 1500m
200 to 500 ft
< 800m
< 200 ft
Symbols :   Thunderstorms  Fog  Heavy snow  Heavy precipitations  Wind > 20 kt
SIGMETs :     Misc.  Thunderstorms  Icing  Turbulence  Mountain Waves  Volcanic Ashes







- Airport Elevation : 112 ft
- IATA code : KIR


EIKY - Kerry Farranfore

CURRENT METAR :
  • 251400Z 34010KT 300V020 9999 SCT028 20/15 Q1023

EXPIRED METARs :
  • 251330Z 33009KT 280V020 9999 SCT027 SCT037 20/15 Q1023
  • 251300Z 33009KT 280V010 9999 SCT021 SCT033 19/15 Q1023
  • 251230Z 32008KT 280V350 9999 SCT030 19/14 Q1023
  • 251200Z 33009KT 290V010 9999 SCT030 SCT035 18/14 Q1023
  • 251130Z 35008KT 310V010 9999 FEW027 19/14 Q1023

Expired Forecast.
No reported NOTAMs for that airfield.



MET'MAP, your aeronautical weather chart ! - Copyright ORBIFLY December 2007 - Disclaimer

ORBIFLY MET'MAP TEAM :

Programming & Development : Alexandra Zaïnal
Concept & Development : Baudouin d'Aumeries
Co-Development & Prog : Marc-Olivier Méhu
Technical & hardware support : Manuel Goepfert

Contact : metmap@orbifly.com




SOURCES & CREDITS :

   NOAA